Back to catalog

FENGYUN 1C DEB

AliveSSO
NORAD 32127·DEBRIS·🇨🇳 China

Launched May 10, 1999 from Taiyuan Satellite Launch Center

Loading…

Next Passes (next 24 hours)

TLE

AgingSource: Space-Track

Epoch: Sep 10, 2026, 02:24 UTC

1 32127U 99025CRV 26253.10005042  .00001276  00000-0  13325-2 0  9992
2 32127  99.2638 199.0325 0283322  16.5007 344.5129 13.60935147641101

Track FENGYUN 1C DEB in real time with AllMySat

Download on the App Store